User: anonymous   Login
Location: Dead Woman Crossing
(43.5369°N, 106.3228°W)
Time: 08:04:32
(UTC+00:00)
Language:

M-CUBED/EXP-1 PRIME - Orbit

View from above orbital plane
View from above orbital plane
View from above satellite
View from above satellite

Ground track
Ground track

The orbit data is extracted from the following two-line orbital elements,

1 37855U 11061F   22177.89796625  .00007687  00000-0  33774-3 0  9993
2 37855 101.7101 301.9699 0152621  34.0795 327.0107 15.12558676582666
Epoch (UTC): 26 June 2022 21:33:04
Eccentricity: 0.0152621
inclination: 101.7101°
perigee height: 423 km
apogee height: 634 km
right ascension of ascending node: 301.9699°
argument of perigee: 34.0795°
revolutions per day: 15.12558676
mean anomaly at epoch: 327.0107°
orbit number at epoch: 58266

The dashed part of the orbit path shows where the satellite is in the earth's shadow,  

DLR